Location: Cheching
(60.0667°N, 164.2167°W)
Time: 08:21:07
(UTC+00:00)

XW-2D - Pass Details

Date: 19 January 2021
Orbit: 505 x 525 km, 97.5° (Epoch: 09 March)

Event Time Altitude Azimuth Distance (km) Brightness Sun altitude
Rises 16:06:13 0° 23° (NNE) 2,669 ? -25.0°
Reaches altitude 10° 16:08:43 10° 39° (NE) 1,778 ? -24.7°
Maximum altitude 16:11:44 22° 91° (E) 1,203 ? -24.4°
Drops below altitude 10° 16:14:44 10° 142° (SE) 1,772 ? -24.0°
Sets 16:17:12 0° 159° (SSE) 2,657 ? -23.7°
